Time,TemperatureF,DewpointF,PressureIn,WindDirection,WindDirectionDegrees,WindSpeedMPH,WindSpeedGustMPH,Humidity,HourlyPrecipIn,Conditions,Clouds,dailyrainin,SoftwareType,DateUTC
2013-05-25 00:01:00,54.0,45.0,-100.00,WSW,249,11.0,-999.0,73,0.00,,,-99.99,,2013-05-25 07:01:00,
2013-05-25 00:11:00,54.0,45.0,-100.00,WSW,249,11.0,-999.0,73,0.00,,,-99.99,,2013-05-25 07:11:00,
2013-05-25 00:21:00,54.0,45.0,-100.00,WSW,249,11.0,-999.0,73,0.00,,,-99.99,,2013-05-25 07:21:00,
2013-05-25 00:31:00,54.0,45.0,-100.00,WSW,249,11.0,-999.0,73,0.00,,,-99.99,,2013-05-25 07:31:00,
2013-05-25 00:41:00,54.0,45.0,-100.00,WSW,249,11.0,-999.0,73,0.00,,,-99.99,,2013-05-25 07:41:00,
2013-05-25 01:02:00,53.0,46.0,-100.00,WSW,244,13.0,-999.0,76,0.00,,,-99.99,,2013-05-25 08:02:00,
2013-05-25 01:11:00,53.0,46.0,-100.00,WSW,244,13.0,-999.0,76,0.00,,,-99.99,,2013-05-25 08:11:00,
2013-05-25 01:22:00,53.0,46.0,-100.00,WSW,244,13.0,-999.0,76,0.00,,,-99.99,,2013-05-25 08:22:00,
2013-05-25 01:31:00,53.0,46.0,-100.00,WSW,244,13.0,-999.0,76,0.00,,,-99.99,,2013-05-25 08:31:00,
2013-05-25 01:41:00,53.0,46.0,-100.00,WSW,244,13.0,-999.0,76,0.00,,,-99.99,,2013-05-25 08:41:00,
2013-05-25 02:01:00,53.0,46.0,-100.00,WSW,245,11.0,-999.0,79,0.00,,,-99.99,,2013-05-25 09:01:00,
2013-05-25 02:11:00,53.0,46.0,-100.00,WSW,245,11.0,-999.0,79,0.00,,,-99.99,,2013-05-25 09:11:00,
2013-05-25 02:21:00,53.0,46.0,-100.00,WSW,245,11.0,-999.0,79,0.00,,,-99.99,,2013-05-25 09:21:00,
2013-05-25 02:33:00,53.0,46.0,-100.00,WSW,245,11.0,-999.0,79,0.00,,,-99.99,,2013-05-25 09:33:00,
2013-05-25 02:42:00,53.0,46.0,-100.00,WSW,245,11.0,-999.0,79,0.00,,,-99.99,,2013-05-25 09:42:00,
2013-05-25 03:02:00,52.0,46.0,-100.00,WSW,250,10.0,-999.0,82,0.00,,,-99.99,,2013-05-25 10:02:00,
2013-05-25 03:12:00,52.0,46.0,-100.00,WSW,250,10.0,-999.0,82,0.00,,,-99.99,,2013-05-25 10:12:00,
2013-05-25 03:22:00,52.0,46.0,-100.00,WSW,250,10.0,-999.0,82,0.00,,,-99.99,,2013-05-25 10:22:00,
2013-05-25 03:32:00,52.0,46.0,-100.00,WSW,250,10.0,-999.0,82,0.00,,,-99.99,,2013-05-25 10:32:00,
2013-05-25 03:42:00,52.0,46.0,-100.00,WSW,250,10.0,-999.0,82,0.00,,,-99.99,,2013-05-25 10:42:00,
2013-05-25 04:02:00,51.0,46.0,-100.00,WSW,253,8.0,-999.0,84,0.00,,,-99.99,,2013-05-25 11:02:00,
2013-05-25 04:12:00,51.0,46.0,-100.00,WSW,253,8.0,-999.0,84,0.00,,,-99.99,,2013-05-25 11:12:00,
2013-05-25 04:21:00,51.0,46.0,-100.00,WSW,253,8.0,-999.0,84,0.00,,,-99.99,,2013-05-25 11:21:00,
2013-05-25 04:32:00,51.0,46.0,-100.00,WSW,253,8.0,-999.0,84,0.00,,,-99.99,,2013-05-25 11:32:00,
2013-05-25 04:41:00,51.0,46.0,-100.00,WSW,253,8.0,-999.0,84,0.00,,,-99.99,,2013-05-25 11:41:00,
2013-05-25 05:01:00,50.0,46.0,-100.00,WSW,252,9.0,-999.0,85,0.00,,,-99.99,,2013-05-25 12:01:00,
2013-05-25 05:12:00,50.0,46.0,-100.00,WSW,252,9.0,-999.0,85,0.00,,,-99.99,,2013-05-25 12:12:00,
2013-05-25 05:22:00,50.0,46.0,-100.00,WSW,252,9.0,-999.0,85,0.00,,,-99.99,,2013-05-25 12:22:00,
2013-05-25 05:32:00,50.0,46.0,-100.00,WSW,252,9.0,-999.0,85,0.00,,,-99.99,,2013-05-25 12:32:00,
2013-05-25 05:42:00,50.0,46.0,-100.00,WSW,252,9.0,-999.0,85,0.00,,,-99.99,,2013-05-25 12:42:00,
2013-05-25 06:02:00,50.0,46.0,-100.00,WSW,257,9.0,-999.0,86,0.00,,,-99.99,,2013-05-25 13:02:00,
2013-05-25 06:11:00,50.0,46.0,-100.00,WSW,257,9.0,-999.0,86,0.00,,,-99.99,,2013-05-25 13:11:00,
2013-05-25 06:21:00,50.0,46.0,-100.00,WSW,257,9.0,-999.0,86,0.00,,,-99.99,,2013-05-25 13:21:00,
2013-05-25 06:32:00,50.0,46.0,-100.00,WSW,257,9.0,-999.0,86,0.00,,,-99.99,,2013-05-25 13:32:00,
2013-05-25 06:42:00,50.0,46.0,-100.00,WSW,257,9.0,-999.0,86,0.00,,,-99.99,,2013-05-25 13:42:00,
2013-05-25 07:02:00,51.0,47.0,-100.00,West,260,9.0,-999.0,85,0.00,,,-99.99,,2013-05-25 14:02:00,
2013-05-25 07:11:00,51.0,47.0,-100.00,West,260,9.0,-999.0,85,0.00,,,-99.99,,2013-05-25 14:11:00,
2013-05-25 07:22:00,51.0,47.0,-100.00,West,260,9.0,-999.0,85,0.00,,,-99.99,,2013-05-25 14:22:00,
2013-05-25 07:32:00,51.0,47.0,-100.00,West,260,9.0,-999.0,85,0.00,,,-99.99,,2013-05-25 14:32:00,
2013-05-25 07:41:00,51.0,47.0,-100.00,West,260,9.0,-999.0,85,0.00,,,-99.99,,2013-05-25 14:41:00,
2013-05-25 08:01:00,53.0,47.0,-100.00,West,269,10.0,-999.0,78,0.00,,,-99.99,,2013-05-25 15:01:00,
2013-05-25 08:11:00,53.0,47.0,-100.00,West,269,10.0,-999.0,78,0.00,,,-99.99,,2013-05-25 15:11:00,
2013-05-25 08:22:00,53.0,47.0,-100.00,West,269,10.0,-999.0,78,0.00,,,-99.99,,2013-05-25 15:22:00,
2013-05-25 08:33:00,53.0,47.0,-100.00,West,269,10.0,-999.0,78,0.00,,,-99.99,,2013-05-25 15:33:00,
2013-05-25 08:43:00,53.0,47.0,-100.00,West,269,10.0,-999.0,78,0.00,,,-99.99,,2013-05-25 15:43:00,
2013-05-25 09:03:00,55.0,46.0,-100.00,West,261,11.0,-999.0,72,0.00,,,-99.99,,2013-05-25 16:03:00,
2013-05-25 09:12:00,55.0,46.0,-100.00,West,261,11.0,-999.0,72,0.00,,,-99.99,,2013-05-25 16:12:00,
2013-05-25 09:23:00,55.0,46.0,-100.00,West,261,11.0,-999.0,72,0.00,,,-99.99,,2013-05-25 16:23:00,
2013-05-25 09:32:00,55.0,46.0,-100.00,West,261,11.0,-999.0,72,0.00,,,-99.99,,2013-05-25 16:32:00,
2013-05-25 09:42:00,55.0,46.0,-100.00,West,261,11.0,-999.0,72,0.00,,,-99.99,,2013-05-25 16:42:00,
2013-05-25 10:02:00,58.0,46.0,-100.00,West,266,10.0,-999.0,64,0.00,,,-99.99,,2013-05-25 17:02:00,
2013-05-25 10:11:00,58.0,46.0,-100.00,West,266,10.0,-999.0,64,0.00,,,-99.99,,2013-05-25 17:11:00,
2013-05-25 10:22:00,58.0,46.0,-100.00,West,266,10.0,-999.0,64,0.00,,,-99.99,,2013-05-25 17:22:00,
2013-05-25 10:32:00,58.0,46.0,-100.00,West,266,10.0,-999.0,64,0.00,,,-99.99,,2013-05-25 17:32:00,
2013-05-25 10:41:00,58.0,46.0,-100.00,West,266,10.0,-999.0,64,0.00,,,-99.99,,2013-05-25 17:41:00,
2013-05-25 11:01:00,61.0,46.0,-100.00,West,271,9.0,-999.0,58,0.00,,,-99.99,,2013-05-25 18:01:00,
2013-05-25 11:11:00,61.0,46.0,-100.00,West,271,9.0,-999.0,58,0.00,,,-99.99,,2013-05-25 18:11:00,
2013-05-25 11:21:00,61.0,46.0,-100.00,West,271,9.0,-999.0,58,0.00,,,-99.99,,2013-05-25 18:21:00,
2013-05-25 11:32:00,61.0,46.0,-100.00,West,271,9.0,-999.0,58,0.00,,,-99.99,,2013-05-25 18:32:00,
2013-05-25 11:41:00,61.0,46.0,-100.00,West,271,9.0,-999.0,58,0.00,,,-99.99,,2013-05-25 18:41:00,
2013-05-25 12:01:00,64.0,46.0,-100.00,West,275,9.0,-999.0,52,0.00,,,-99.99,,2013-05-25 19:01:00,
2013-05-25 12:11:00,64.0,46.0,-100.00,West,275,9.0,-999.0,52,0.00,,,-99.99,,2013-05-25 19:11:00,
2013-05-25 12:21:00,64.0,46.0,-100.00,West,275,9.0,-999.0,52,0.00,,,-99.99,,2013-05-25 19:21:00,
2013-05-25 12:31:00,64.0,46.0,-100.00,West,275,9.0,-999.0,52,0.00,,,-99.99,,2013-05-25 19:31:00,
2013-05-25 12:41:00,64.0,46.0,-100.00,West,275,9.0,-999.0,52,0.00,,,-99.99,,2013-05-25 19:41:00,
2013-05-25 13:02:00,66.0,45.0,-100.00,West,262,9.0,-999.0,47,0.00,,,-99.99,,2013-05-25 20:02:00,
2013-05-25 13:11:00,66.0,45.0,-100.00,West,262,9.0,-999.0,47,0.00,,,-99.99,,2013-05-25 20:11:00,
2013-05-25 13:21:00,66.0,45.0,-100.00,West,262,9.0,-999.0,47,0.00,,,-99.99,,2013-05-25 20:21:00,
2013-05-25 13:32:00,66.0,45.0,-100.00,West,262,9.0,-999.0,47,0.00,,,-99.99,,2013-05-25 20:32:00,
2013-05-25 13:41:00,66.0,45.0,-100.00,West,262,9.0,-999.0,47,0.00,,,-99.99,,2013-05-25 20:41:00,
2013-05-25 14:02:00,68.0,46.0,-100.00,WSW,254,8.0,-999.0,44,0.00,,,-99.99,,2013-05-25 21:02:00,
2013-05-25 14:11:00,68.0,46.0,-100.00,WSW,254,8.0,-999.0,44,0.00,,,-99.99,,2013-05-25 21:11:00,
2013-05-25 14:21:00,68.0,46.0,-100.00,WSW,254,8.0,-999.0,44,0.00,,,-99.99,,2013-05-25 21:21:00,
2013-05-25 14:32:00,68.0,46.0,-100.00,WSW,254,8.0,-999.0,44,0.00,,,-99.99,,2013-05-25 21:32:00,
2013-05-25 14:42:00,68.0,46.0,-100.00,WSW,254,8.0,-999.0,44,0.00,,,-99.99,,2013-05-25 21:42:00,
2013-05-25 15:03:00,70.0,47.0,-100.00,WSW,253,12.0,-999.0,43,0.00,,,-99.99,,2013-05-25 22:03:00,
2013-05-25 15:12:00,70.0,47.0,-100.00,WSW,253,12.0,-999.0,43,0.00,,,-99.99,,2013-05-25 22:12:00,
2013-05-25 15:22:00,70.0,47.0,-100.00,WSW,253,12.0,-999.0,43,0.00,,,-99.99,,2013-05-25 22:22:00,
2013-05-25 15:32:00,70.0,47.0,-100.00,WSW,253,12.0,-999.0,43,0.00,,,-99.99,,2013-05-25 22:32:00,
2013-05-25 15:42:00,70.0,47.0,-100.00,WSW,253,12.0,-999.0,43,0.00,,,-99.99,,2013-05-25 22:42:00,
2013-05-25 16:02:00,70.0,46.0,-100.00,West,260,14.0,-999.0,43,0.00,,,-99.99,,2013-05-25 23:02:00,
2013-05-25 16:12:00,70.0,46.0,-100.00,West,260,14.0,-999.0,43,0.00,,,-99.99,,2013-05-25 23:12:00,
2013-05-25 16:21:00,70.0,46.0,-100.00,West,260,14.0,-999.0,43,0.00,,,-99.99,,2013-05-25 23:21:00,
2013-05-25 16:32:00,70.0,46.0,-100.00,West,260,14.0,-999.0,43,0.00,,,-99.99,,2013-05-25 23:32:00,
2013-05-25 16:42:00,70.0,46.0,-100.00,West,260,14.0,-999.0,43,0.00,,,-99.99,,2013-05-25 23:42:00,
2013-05-25 17:01:00,67.0,46.0,-100.00,WSW,248,15.0,-999.0,46,0.00,,,-99.99,,2013-05-26 00:01:00,
2013-05-25 17:11:00,67.0,46.0,-100.00,WSW,248,15.0,-999.0,46,0.00,,,-99.99,,2013-05-26 00:11:00,
2013-05-25 17:21:00,67.0,46.0,-100.00,WSW,248,15.0,-999.0,46,0.00,,,-99.99,,2013-05-26 00:21:00,
2013-05-25 17:31:00,67.0,46.0,-100.00,WSW,248,15.0,-999.0,46,0.00,,,-99.99,,2013-05-26 00:31:00,
2013-05-25 17:42:00,67.0,46.0,-100.00,WSW,248,15.0,-999.0,46,0.00,,,-99.99,,2013-05-26 00:42:00,
2013-05-25 18:01:00,65.0,46.0,-100.00,WSW,245,15.0,-999.0,50,0.00,,,-99.99,,2013-05-26 01:01:00,
2013-05-25 18:11:00,65.0,46.0,-100.00,WSW,245,15.0,-999.0,50,0.00,,,-99.99,,2013-05-26 01:11:00,
2013-05-25 18:21:00,65.0,46.0,-100.00,WSW,245,15.0,-999.0,50,0.00,,,-99.99,,2013-05-26 01:21:00,
2013-05-25 18:32:00,65.0,46.0,-100.00,WSW,245,15.0,-999.0,50,0.00,,,-99.99,,2013-05-26 01:32:00,
2013-05-25 18:41:00,65.0,46.0,-100.00,WSW,245,15.0,-999.0,50,0.00,,,-99.99,,2013-05-26 01:41:00,
2013-05-25 19:02:00,63.0,45.0,-100.00,West,260,16.0,-999.0,52,0.00,,,-99.99,,2013-05-26 02:02:00,
2013-05-25 19:11:00,63.0,45.0,-100.00,West,260,16.0,-999.0,52,0.00,,,-99.99,,2013-05-26 02:11:00,
2013-05-25 19:21:00,63.0,45.0,-100.00,West,260,16.0,-999.0,52,0.00,,,-99.99,,2013-05-26 02:21:00,
2013-05-25 19:32:00,63.0,45.0,-100.00,West,260,16.0,-999.0,52,0.00,,,-99.99,,2013-05-26 02:32:00,
2013-05-25 19:41:00,63.0,45.0,-100.00,West,260,16.0,-999.0,52,0.00,,,-99.99,,2013-05-26 02:41:00,
2013-05-25 20:01:00,61.0,47.0,-100.00,WSW,258,12.0,-999.0,60,0.00,,,-99.99,,2013-05-26 03:01:00,
2013-05-25 20:11:00,61.0,47.0,-100.00,WSW,258,12.0,-999.0,60,0.00,,,-99.99,,2013-05-26 03:11:00,
2013-05-25 20:21:00,61.0,47.0,-100.00,WSW,258,12.0,-999.0,60,0.00,,,-99.99,,2013-05-26 03:21:00,
2013-05-25 20:33:00,61.0,47.0,-100.00,WSW,258,12.0,-999.0,60,0.00,,,-99.99,,2013-05-26 03:33:00,
2013-05-25 20:42:00,61.0,47.0,-100.00,WSW,258,12.0,-999.0,60,0.00,,,-99.99,,2013-05-26 03:42:00,
2013-05-25 21:02:00,58.0,49.0,-100.00,WSW,252,14.0,-999.0,71,0.00,,,-99.99,,2013-05-26 04:02:00,
2013-05-25 21:12:00,58.0,49.0,-100.00,WSW,252,14.0,-999.0,71,0.00,,,-99.99,,2013-05-26 04:12:00,
2013-05-25 21:23:00,58.0,49.0,-100.00,WSW,252,14.0,-999.0,71,0.00,,,-99.99,,2013-05-26 04:23:00,
2013-05-25 21:33:00,58.0,49.0,-100.00,WSW,252,14.0,-999.0,71,0.00,,,-99.99,,2013-05-26 04:33:00,
2013-05-25 21:42:00,58.0,49.0,-100.00,WSW,252,14.0,-999.0,71,0.00,,,-99.99,,2013-05-26 04:42:00,
2013-05-25 22:02:00,55.0,49.0,-100.00,WSW,255,13.0,-999.0,78,0.00,,,-99.99,,2013-05-26 05:02:00,
2013-05-25 22:12:00,55.0,49.0,-100.00,WSW,255,13.0,-999.0,78,0.00,,,-99.99,,2013-05-26 05:12:00,
2013-05-25 22:22:00,55.0,49.0,-100.00,WSW,255,13.0,-999.0,78,0.00,,,-99.99,,2013-05-26 05:22:00,
2013-05-25 22:32:00,55.0,49.0,-100.00,WSW,255,13.0,-999.0,78,0.00,,,-99.99,,2013-05-26 05:32:00,
2013-05-25 22:42:00,55.0,49.0,-100.00,WSW,255,13.0,-999.0,78,0.00,,,-99.99,,2013-05-26 05:42:00,
2013-05-25 23:01:00,54.0,48.0,-100.00,WSW,255,17.0,-999.0,80,0.00,,,-99.99,,2013-05-26 06:01:00,
2013-05-25 23:11:00,54.0,48.0,-100.00,WSW,255,17.0,-999.0,80,0.00,,,-99.99,,2013-05-26 06:11:00,
2013-05-25 23:21:00,54.0,48.0,-100.00,WSW,255,17.0,-999.0,80,0.00,,,-99.99,,2013-05-26 06:21:00,
2013-05-25 23:32:00,54.0,48.0,-100.00,WSW,255,17.0,-999.0,80,0.00,,,-99.99,,2013-05-26 06:32:00,
2013-05-25 23:41:00,54.0,48.0,-100.00,WSW,255,17.0,-999.0,80,0.00,,,-99.99,,2013-05-26 06:41:00,